Tracking 35331 objects as of 16-Sep-2026
HD Live streaming from Space Station
objects crossing your sky now

SPACEBEE-88


SPACEBEE-88 is no longer on orbit


NORAD ID: 48935
Int'l Code: 2021-059BJ
Launch date: June 30, 2021
Source: United States (US)
Launch site: AIR FORCE EASTERN TEST RANGE (AFETR)
Decay date: 2023-02-24
Your satellite tracking list
Your tracking list is empty




NASA's NSSDC Master Catalog

Two Line Element Set (TLE):
1 48935U 21059BJ  23053.66893557  .10149329  25749-5  21575-2 0  9991
2 48935  97.5235 198.1895 0015575 303.4614  56.5191 16.30468953 92594
Source of the keplerian elements: AFSPC